Time,TemperatureF,DewpointF,PressureIn,WindDirection,WindDirectionDegrees,WindSpeedMPH,WindSpeedGustMPH,Humidity,HourlyPrecipIn,Conditions,Clouds,dailyrainin,SolarRadiationWatts/m^2,SoftwareType,DateUTC
2013-05-04 00:00:00,38.8,34.4,29.98,NW,304,0.0,1.0,84,0.00,,,0.09,0,Wunderground v.1.15,2013-05-04 06:00:00,
2013-05-04 00:05:00,38.7,34.3,29.99,NW,304,1.0,1.0,84,0.00,,,0.00,0,Wunderground v.1.15,2013-05-04 06:05:00,
2013-05-04 00:10:00,38.7,34.3,29.99,NW,305,1.0,1.0,84,0.00,,,0.00,0,Wunderground v.1.15,2013-05-04 06:10:00,
2013-05-04 00:15:00,38.7,34.6,29.99,NW,305,0.0,1.0,85,0.00,,,0.00,0,Wunderground v.1.15,2013-05-04 06:15:00,
2013-05-04 00:25:00,38.7,34.6,29.99,NW,304,0.0,0.0,85,0.00,,,0.01,0,Wunderground v.1.15,2013-05-04 06:25:00,
2013-05-04 00:30:00,38.5,34.1,29.99,WNW,299,1.0,2.0,84,0.00,,,0.01,0,Wunderground v.1.15,2013-05-04 06:30:00,
2013-05-04 00:40:00,38.3,33.9,30.00,WNW,301,3.0,3.0,84,0.04,,,0.02,0,Wunderground v.1.15,2013-05-04 06:40:00,
2013-05-04 00:45:00,38.2,33.8,30.00,WNW,299,3.0,3.0,84,0.04,,,0.02,0,Wunderground v.1.15,2013-05-04 06:45:00,
2013-05-04 00:55:00,38.0,33.6,30.00,WNW,296,2.0,2.0,84,0.00,,,0.03,0,Wunderground v.1.15,2013-05-04 06:55:00,
2013-05-04 01:00:00,38.0,33.6,30.00,WNW,299,2.0,3.0,84,0.00,,,0.03,0,Wunderground v.1.15,2013-05-04 07:00:00,
2013-05-04 01:05:00,37.9,33.5,30.00,WNW,299,2.0,3.0,84,0.05,,,0.04,0,Wunderground v.1.15,2013-05-04 07:05:00,
2013-05-04 01:10:00,37.8,33.4,30.00,WNW,299,2.0,2.0,84,0.05,,,0.04,0,Wunderground v.1.15,2013-05-04 07:10:00,
2013-05-04 01:15:00,37.8,33.7,29.99,WNW,299,2.0,2.0,85,0.05,,,0.04,0,Wunderground v.1.15,2013-05-04 07:15:00,
2013-05-04 01:25:00,37.7,33.6,29.99,WNW,299,2.0,2.0,85,0.00,,,0.04,0,Wunderground v.1.15,2013-05-04 07:25:00,
2013-05-04 01:30:00,37.7,33.6,30.00,WNW,299,1.0,1.0,85,0.00,,,0.05,0,Wunderground v.1.15,2013-05-04 07:30:00,
2013-05-04 01:40:00,37.7,33.9,30.00,WNW,299,0.0,0.0,86,0.00,,,0.05,0,Wunderground v.1.15,2013-05-04 07:40:00,
2013-05-04 01:45:00,37.8,34.0,29.99,WNW,299,0.0,0.0,86,0.00,,,0.06,0,Wunderground v.1.15,2013-05-04 07:45:00,
2013-05-04 01:55:00,37.8,34.0,29.99,WNW,299,0.0,0.0,86,0.00,,,0.06,0,Wunderground v.1.15,2013-05-04 07:55:00,
2013-05-04 02:00:00,37.7,33.9,29.99,WNW,299,0.0,0.0,86,0.05,,,0.07,0,Wunderground v.1.15,2013-05-04 08:00:00,
2013-05-04 02:10:00,37.6,33.5,29.99,WNW,299,1.0,1.0,85,0.07,,,0.08,0,Wunderground v.1.15,2013-05-04 08:10:00,
2013-05-04 02:15:00,37.5,33.4,29.99,WNW,299,1.0,1.0,85,0.04,,,0.08,0,Wunderground v.1.15,2013-05-04 08:15:00,
2013-05-04 02:20:00,37.4,33.3,30.00,WNW,299,0.0,0.0,85,0.04,,,0.09,0,Wunderground v.1.15,2013-05-04 08:20:00,
2013-05-04 02:25:00,37.3,33.5,29.99,WNW,299,0.0,0.0,86,0.04,,,0.09,0,Wunderground v.1.15,2013-05-04 08:25:00,
2013-05-04 02:35:00,37.3,33.5,30.00,WNW,299,0.0,1.0,86,0.06,,,0.10,0,Wunderground v.1.15,2013-05-04 08:35:00,
2013-05-04 02:40:00,37.3,33.5,30.00,WNW,299,0.0,0.0,86,0.05,,,0.11,0,Wunderground v.1.15,2013-05-04 08:40:00,
2013-05-04 02:50:00,37.2,33.4,30.00,WNW,299,0.0,1.0,86,0.08,,,0.12,0,Wunderground v.1.15,2013-05-04 08:50:00,
2013-05-04 02:55:00,37.1,33.3,30.00,WNW,299,1.0,1.0,86,0.06,,,0.12,0,Wunderground v.1.15,2013-05-04 08:55:00,
2013-05-04 03:00:00,37.0,33.2,30.00,WNW,299,0.0,1.0,86,0.04,,,0.12,0,Wunderground v.1.15,2013-05-04 09:00:00,
2013-05-04 03:10:00,36.9,33.1,30.00,WNW,299,1.0,2.0,86,0.08,,,0.14,0,Wunderground v.1.15,2013-05-04 09:10:00,
2013-05-04 03:15:00,36.8,33.0,30.00,WNW,299,2.0,2.0,86,0.08,,,0.14,0,Wunderground v.1.15,2013-05-04 09:15:00,
2013-05-04 03:20:00,36.7,32.9,30.00,WNW,299,1.0,1.0,86,0.06,,,0.14,0,Wunderground v.1.15,2013-05-04 09:20:00,
2013-05-04 03:25:00,36.6,32.8,30.00,WNW,299,1.0,1.0,86,0.05,,,0.15,0,Wunderground v.1.15,2013-05-04 09:25:00,
2013-05-04 03:30:00,36.5,32.7,30.00,WNW,299,1.0,1.0,86,0.09,,,0.16,0,Wunderground v.1.15,2013-05-04 09:30:00,
2013-05-04 03:35:00,36.4,32.6,30.00,WNW,299,1.0,1.0,86,0.08,,,0.16,0,Wunderground v.1.15,2013-05-04 09:35:00,
2013-05-04 03:45:00,36.2,32.4,30.00,WNW,299,1.0,1.0,86,0.04,,,0.17,0,Wunderground v.1.15,2013-05-04 09:45:00,
2013-05-04 03:50:00,36.2,32.7,30.00,WNW,299,0.0,0.0,87,0.04,,,0.17,0,Wunderground v.1.15,2013-05-04 09:50:00,
2013-05-04 03:55:00,36.2,32.7,30.00,WNW,299,0.0,0.0,87,0.05,,,0.18,0,Wunderground v.1.15,2013-05-04 09:55:00,
2013-05-04 04:00:00,36.1,32.6,30.01,WNW,299,0.0,0.0,87,0.05,,,0.18,0,Wunderground v.1.15,2013-05-04 10:00:00,
2013-05-04 04:10:00,36.1,32.6,30.01,WNW,299,0.0,1.0,87,0.04,,,0.18,0,Wunderground v.1.15,2013-05-04 10:10:00,
2013-05-04 04:15:00,36.1,32.6,30.01,WNW,299,1.0,1.0,87,0.00,,,0.18,0,Wunderground v.1.15,2013-05-04 10:15:00,
2013-05-04 04:20:00,36.1,32.6,30.01,WNW,299,1.0,1.0,87,0.00,,,0.18,0,Wunderground v.1.15,2013-05-04 10:20:00,
2013-05-04 04:25:00,36.0,32.5,30.01,WNW,299,0.0,1.0,87,0.00,,,0.18,0,Wunderground v.1.15,2013-05-04 10:25:00,
2013-05-04 04:30:00,36.1,32.9,30.01,WNW,299,0.0,0.0,88,0.00,,,0.18,0,Wunderground v.1.15,2013-05-04 10:30:00,
2013-05-04 04:40:00,36.1,32.9,30.01,WNW,299,0.0,0.0,88,0.00,,,0.18,0,Wunderground v.1.15,2013-05-04 10:40:00,
2013-05-04 04:45:00,36.2,33.0,30.01,WNW,299,0.0,0.0,88,0.00,,,0.19,0,Wunderground v.1.15,2013-05-04 10:45:00,
2013-05-04 04:50:00,36.2,33.0,30.01,WNW,299,0.0,0.0,88,0.00,,,0.19,0,Wunderground v.1.15,2013-05-04 10:50:00,
2013-05-04 04:55:00,36.2,33.0,30.01,WNW,299,0.0,0.0,88,0.00,,,0.19,0,Wunderground v.1.15,2013-05-04 10:55:00,
2013-05-04 05:00:00,36.3,33.1,30.01,WNW,299,0.0,0.0,88,0.00,,,0.19,0,Wunderground v.1.15,2013-05-04 11:00:00,
2013-05-04 05:10:00,36.4,33.5,30.02,WNW,299,0.0,0.0,89,0.00,,,0.20,0,Wunderground v.1.15,2013-05-04 11:10:00,
2013-05-04 05:20:00,36.4,33.5,30.02,WNW,299,0.0,0.0,89,0.00,,,0.20,0,Wunderground v.1.15,2013-05-04 11:20:00,
2013-05-04 05:25:00,36.4,33.5,30.02,WNW,299,0.0,0.0,89,0.00,,,0.20,0,Wunderground v.1.15,2013-05-04 11:25:00,
2013-05-04 05:30:00,36.3,33.4,30.02,WNW,299,0.0,0.0,89,0.00,,,0.21,0,Wunderground v.1.15,2013-05-04 11:30:00,
2013-05-04 05:40:00,36.3,33.4,30.02,WNW,299,0.0,0.0,89,0.07,,,0.22,0,Wunderground v.1.15,2013-05-04 11:40:00,
2013-05-04 05:45:00,36.2,33.5,30.02,WNW,299,0.0,0.0,90,0.05,,,0.23,0,Wunderground v.1.15,2013-05-04 11:45:00,
2013-05-04 05:50:00,36.2,33.3,30.02,WNW,299,0.0,0.0,89,0.05,,,0.23,0,Wunderground v.1.15,2013-05-04 11:50:00,
2013-05-04 06:05:00,36.1,33.5,30.02,WNW,299,0.0,0.0,90,0.00,,,0.24,0,Wunderground v.1.15,2013-05-04 12:05:00,
2013-05-04 06:10:00,36.1,33.5,30.03,WNW,299,0.0,0.0,90,0.00,,,0.24,0,Wunderground v.1.15,2013-05-04 12:10:00,
2013-05-04 06:15:00,36.1,33.5,30.03,WNW,299,0.0,0.0,90,0.00,,,0.24,5,Wunderground v.1.15,2013-05-04 12:15:00,
2013-05-04 06:20:00,36.0,33.4,30.03,WNW,299,0.0,0.0,90,0.00,,,0.24,7,Wunderground v.1.15,2013-05-04 12:20:00,
2013-05-04 06:30:00,35.9,33.3,30.03,WNW,299,0.0,0.0,90,0.00,,,0.25,12,Wunderground v.1.15,2013-05-04 12:30:00,
2013-05-04 06:35:00,35.9,33.3,30.03,WNW,299,0.0,0.0,90,0.00,,,0.25,14,Wunderground v.1.15,2013-05-04 12:35:00,
2013-05-04 06:45:00,35.8,33.2,30.03,WNW,299,1.0,1.0,90,0.00,,,0.25,16,Wunderground v.1.15,2013-05-04 12:45:00,
2013-05-04 06:50:00,35.8,33.2,30.03,WNW,299,1.0,1.0,90,0.00,,,0.26,18,Wunderground v.1.15,2013-05-04 12:50:00,
2013-05-04 06:55:00,35.7,33.1,30.04,WNW,299,0.0,1.0,90,0.00,,,0.26,21,Wunderground v.1.15,2013-05-04 12:55:00,
2013-05-04 07:00:00,35.6,33.0,30.04,WNW,299,0.0,0.0,90,0.00,,,0.26,21,Wunderground v.1.15,2013-05-04 13:00:00,
2013-05-04 07:05:00,35.6,33.0,30.04,WNW,299,0.0,0.0,90,0.04,,,0.27,21,Wunderground v.1.15,2013-05-04 13:05:00,
2013-05-04 07:10:00,35.6,33.0,30.05,WNW,299,0.0,0.0,90,0.08,,,0.28,23,Wunderground v.1.15,2013-05-04 13:10:00,
2013-05-04 07:15:00,35.6,33.0,30.05,WNW,299,0.0,0.0,90,0.08,,,0.28,25,Wunderground v.1.15,2013-05-04 13:15:00,
2013-05-04 07:20:00,35.6,33.0,30.05,WNW,299,0.0,0.0,90,0.05,,,0.28,26,Wunderground v.1.15,2013-05-04 13:20:00,
2013-05-04 07:25:00,35.6,33.0,30.05,WNW,299,0.0,0.0,90,0.04,,,0.29,33,Wunderground v.1.15,2013-05-04 13:25:00,
2013-05-04 07:30:00,35.6,33.0,30.05,WNW,299,0.0,0.0,90,0.10,,,0.30,37,Wunderground v.1.15,2013-05-04 13:30:00,
2013-05-04 07:40:00,35.5,32.9,30.06,WNW,299,0.0,0.0,90,0.05,,,0.30,37,Wunderground v.1.15,2013-05-04 13:40:00,
2013-05-04 07:50:00,35.6,33.0,30.06,WNW,299,0.0,0.0,90,0.08,,,0.32,39,Wunderground v.1.15,2013-05-04 13:50:00,
2013-05-04 07:55:00,35.6,33.0,30.06,WNW,299,0.0,0.0,90,0.08,,,0.32,42,Wunderground v.1.15,2013-05-04 13:55:00,
2013-05-04 08:00:00,35.6,33.0,30.06,WNW,299,0.0,0.0,90,0.06,,,0.33,46,Wunderground v.1.15,2013-05-04 14:00:00,
2013-05-04 08:10:00,35.6,33.0,30.06,WNW,299,0.0,0.0,90,0.08,,,0.34,46,Wunderground v.1.15,2013-05-04 14:10:00,
2013-05-04 08:15:00,35.6,33.0,30.06,WNW,299,0.0,0.0,90,0.07,,,0.34,46,Wunderground v.1.15,2013-05-04 14:15:00,
2013-05-04 08:25:00,35.5,32.9,30.07,WNW,299,0.0,0.0,90,0.09,,,0.36,49,Wunderground v.1.15,2013-05-04 14:25:00,
2013-05-04 08:35:00,35.6,33.0,30.07,WNW,299,0.0,0.0,90,0.06,,,0.36,47,Wunderground v.1.15,2013-05-04 14:35:00,
2013-05-04 08:40:00,35.6,33.0,30.07,WNW,299,0.0,0.0,90,0.05,,,0.37,49,Wunderground v.1.15,2013-05-04 14:40:00,
2013-05-04 08:45:00,35.5,32.6,30.07,WNW,299,0.0,0.0,89,0.12,,,0.38,49,Wunderground v.1.15,2013-05-04 14:45:00,
2013-05-04 08:55:00,35.3,32.4,30.07,WNW,299,0.0,3.0,89,0.06,,,0.39,60,Wunderground v.1.15,2013-05-04 14:55:00,
2013-05-04 09:00:00,35.3,32.4,30.07,WNW,299,0.0,0.0,89,0.10,,,0.40,60,Wunderground v.1.15,2013-05-04 15:00:00,
2013-05-04 09:05:00,35.3,32.4,30.08,WNW,299,0.0,0.0,89,0.07,,,0.40,60,Wunderground v.1.15,2013-05-04 15:05:00,
2013-05-04 09:10:00,35.3,32.4,30.08,WNW,299,0.0,0.0,89,0.05,,,0.41,56,Wunderground v.1.15,2013-05-04 15:10:00,
2013-05-04 09:15:00,35.2,32.3,30.08,WNW,299,0.0,0.0,89,0.12,,,0.42,60,Wunderground v.1.15,2013-05-04 15:15:00,
2013-05-04 09:20:00,35.0,32.1,30.08,WNW,299,0.0,0.0,89,0.09,,,0.42,70,Wunderground v.1.15,2013-05-04 15:20:00,
2013-05-04 09:30:00,34.8,31.9,30.08,WNW,299,0.0,0.0,89,0.12,,,0.44,83,Wunderground v.1.15,2013-05-04 15:30:00,
2013-05-04 09:35:00,34.8,31.9,30.08,WNW,299,0.0,0.0,89,0.14,,,0.46,77,Wunderground v.1.15,2013-05-04 15:35:00,
2013-05-04 09:40:00,34.8,31.9,30.08,WNW,299,0.0,0.0,89,0.11,,,0.46,77,Wunderground v.1.15,2013-05-04 15:40:00,
2013-05-04 09:50:00,34.9,32.0,30.08,WNW,299,0.0,0.0,89,0.12,,,0.48,97,Wunderground v.1.15,2013-05-04 15:50:00,
2013-05-04 09:55:00,35.0,32.1,30.08,WNW,299,0.0,0.0,89,0.16,,,0.50,130,Wunderground v.1.15,2013-05-04 15:55:00,
2013-05-04 10:05:00,35.2,32.3,30.09,WNW,299,0.0,0.0,89,0.08,,,0.51,118,Wunderground v.1.15,2013-05-04 16:05:00,
2013-05-04 10:10:00,35.4,32.5,30.09,WNW,299,0.0,0.0,89,0.09,,,0.52,142,Wunderground v.1.15,2013-05-04 16:10:00,
2013-05-04 10:15:00,35.6,32.7,30.09,WNW,299,0.0,0.0,89,0.09,,,0.52,169,Wunderground v.1.15,2013-05-04 16:15:00,
2013-05-04 10:20:00,36.0,33.4,30.09,WNW,299,0.0,0.0,90,0.07,,,0.53,146,Wunderground v.1.15,2013-05-04 16:20:00,
2013-05-04 10:30:00,36.1,33.2,30.09,WNW,299,0.0,0.0,89,0.07,,,0.54,125,Wunderground v.1.15,2013-05-04 16:30:00,
2013-05-04 10:35:00,36.3,33.6,30.10,WNW,299,0.0,0.0,90,0.04,,,0.54,120,Wunderground v.1.15,2013-05-04 16:35:00,
2013-05-04 10:40:00,36.4,33.7,30.10,WNW,299,0.0,0.0,90,0.04,,,0.55,114,Wunderground v.1.15,2013-05-04 16:40:00,
2013-05-04 10:45:00,36.5,33.8,30.10,WNW,299,0.0,0.0,90,0.11,,,0.56,144,Wunderground v.1.15,2013-05-04 16:45:00,
2013-05-04 10:55:00,36.7,34.0,30.10,WNW,299,1.0,1.0,90,0.13,,,0.58,185,Wunderground v.1.15,2013-05-04 16:55:00,
2013-05-04 11:00:00,36.8,34.1,30.10,WNW,299,1.0,2.0,90,0.12,,,0.59,165,Wunderground v.1.15,2013-05-04 17:00:00,
2013-05-04 11:05:00,37.0,34.3,30.10,WNW,301,1.0,2.0,90,0.06,,,0.59,125,Wunderground v.1.15,2013-05-04 17:05:00,
2013-05-04 11:10:00,37.1,34.4,30.10,WNW,301,1.0,1.0,90,0.04,,,0.59,91,Wunderground v.1.15,2013-05-04 17:10:00,
2013-05-04 11:20:00,37.5,34.6,30.11,WNW,301,0.0,0.0,89,0.00,,,0.59,72,Wunderground v.1.15,2013-05-04 17:20:00,
2013-05-04 11:25:00,37.7,35.0,30.11,WNW,301,0.0,0.0,90,0.00,,,0.59,74,Wunderground v.1.15,2013-05-04 17:25:00,
2013-05-04 11:30:00,37.7,35.0,30.11,WNW,301,0.0,0.0,90,0.00,,,0.59,104,Wunderground v.1.15,2013-05-04 17:30:00,
2013-05-04 11:35:00,37.7,35.0,30.11,WNW,301,0.0,0.0,90,0.00,,,0.59,120,Wunderground v.1.15,2013-05-04 17:35:00,
2013-05-04 11:40:00,37.8,35.1,30.11,WNW,301,0.0,0.0,90,0.00,,,0.59,113,Wunderground v.1.15,2013-05-04 17:40:00,
2013-05-04 11:45:00,37.9,34.9,30.11,WNW,301,0.0,0.0,89,0.00,,,0.59,132,Wunderground v.1.15,2013-05-04 17:45:00,
2013-05-04 11:50:00,37.9,35.2,30.11,WNW,301,0.0,0.0,90,0.00,,,0.59,204,Wunderground v.1.15,2013-05-04 17:50:00,
2013-05-04 11:55:00,37.9,35.2,30.11,WNW,301,0.0,0.0,90,0.00,,,0.59,209,Wunderground v.1.15,2013-05-04 17:55:00,
2013-05-04 12:05:00,38.2,35.5,30.11,WNW,301,0.0,0.0,90,0.00,,,0.59,207,Wunderground v.1.15,2013-05-04 18:05:00,
2013-05-04 12:10:00,38.6,35.9,30.11,WNW,301,0.0,0.0,90,0.00,,,0.59,183,Wunderground v.1.15,2013-05-04 18:10:00,
2013-05-04 12:15:00,39.0,36.3,30.11,WNW,301,0.0,1.0,90,0.00,,,0.59,220,Wunderground v.1.15,2013-05-04 18:15:00,
2013-05-04 12:20:00,39.2,36.5,30.11,WNW,301,1.0,1.0,90,0.00,,,0.59,278,Wunderground v.1.15,2013-05-04 18:20:00,
2013-05-04 12:30:00,40.0,37.6,30.11,NW,308,0.0,4.0,91,0.00,,,0.59,422,Wunderground v.1.15,2013-05-04 18:30:00,
2013-05-04 12:35:00,40.7,38.0,30.11,NW,311,2.0,4.0,90,0.00,,,0.59,401,Wunderground v.1.15,2013-05-04 18:35:00,
2013-05-04 12:40:00,41.2,38.5,30.10,WNW,290,3.0,3.0,90,0.00,,,0.59,587,Wunderground v.1.15,2013-05-04 18:40:00,
2013-05-04 12:45:00,41.6,38.6,30.10,WNW,299,4.0,5.0,89,0.00,,,0.59,538,Wunderground v.1.15,2013-05-04 18:45:00,
2013-05-04 12:50:00,42.0,38.7,30.10,WNW,297,4.0,5.0,88,0.00,,,0.59,475,Wunderground v.1.15,2013-05-04 18:50:00,
2013-05-04 12:55:00,42.3,38.4,30.10,WNW,289,5.0,5.0,86,0.00,,,0.59,327,Wunderground v.1.15,2013-05-04 18:55:00,
2013-05-04 13:05:00,42.4,37.6,30.10,WNW,287,4.0,5.0,83,0.00,,,0.59,294,Wunderground v.1.15,2013-05-04 19:05:00,
2013-05-04 13:10:00,42.3,37.2,30.10,WNW,300,4.0,5.0,82,0.00,,,0.59,406,Wunderground v.1.15,2013-05-04 19:10:00,
2013-05-04 13:15:00,42.6,37.8,30.10,WNW,289,4.0,5.0,83,0.00,,,0.59,388,Wunderground v.1.15,2013-05-04 19:15:00,
2013-05-04 13:20:00,42.7,37.9,30.10,NW,321,4.0,4.0,83,0.00,,,0.59,320,Wunderground v.1.15,2013-05-04 19:20:00,
2013-05-04 13:30:00,43.3,38.2,30.10,NW,320,1.0,1.0,82,0.00,,,0.60,285,Wunderground v.1.15,2013-05-04 19:30:00,
2013-05-04 13:35:00,43.6,38.8,30.10,NW,320,0.0,1.0,83,0.00,,,0.60,294,Wunderground v.1.15,2013-05-04 19:35:00,
2013-05-04 13:40:00,43.7,38.9,30.10,NNE,29,0.0,0.0,83,0.00,,,0.60,306,Wunderground v.1.15,2013-05-04 19:40:00,
2013-05-04 13:45:00,43.6,38.8,30.10,NNE,27,1.0,1.0,83,0.00,,,0.60,262,Wunderground v.1.15,2013-05-04 19:45:00,
2013-05-04 13:50:00,43.6,38.8,30.10,NNE,27,1.0,1.0,83,0.00,,,0.60,229,Wunderground v.1.15,2013-05-04 19:50:00,
2013-05-04 14:00:00,43.5,38.7,30.10,NNE,24,0.0,1.0,83,0.00,,,0.60,260,Wunderground v.1.15,2013-05-04 20:00:00,
2013-05-04 14:05:00,43.5,38.7,30.10,NNE,24,0.0,1.0,83,0.00,,,0.60,315,Wunderground v.1.15,2013-05-04 20:05:00,
2013-05-04 14:10:00,43.6,38.5,30.10,NNE,24,0.0,2.0,82,0.00,,,0.60,364,Wunderground v.1.15,2013-05-04 20:10:00,
2013-05-04 14:15:00,43.6,37.5,30.10,NNE,24,0.0,2.0,79,0.00,,,0.60,445,Wunderground v.1.15,2013-05-04 20:15:00,
2013-05-04 14:20:00,43.8,37.7,30.10,NNE,24,0.0,0.0,79,0.00,,,0.60,628,Wunderground v.1.15,2013-05-04 20:20:00,
2013-05-04 14:25:00,44.0,38.2,30.10,NNE,24,1.0,1.0,80,0.00,,,0.60,408,Wunderground v.1.15,2013-05-04 20:25:00,
2013-05-04 14:30:00,44.4,38.3,30.10,NW,306,1.0,1.0,79,0.00,,,0.60,993,Wunderground v.1.15,2013-05-04 20:30:00,
2013-05-04 14:35:00,44.8,39.3,30.10,WNW,299,2.0,2.0,81,0.00,,,0.60,960,Wunderground v.1.15,2013-05-04 20:35:00,
2013-05-04 14:40:00,45.5,40.0,30.10,North,8,1.0,1.0,81,0.00,,,0.60,441,Wunderground v.1.15,2013-05-04 20:40:00,
2013-05-04 14:50:00,46.1,39.6,30.10,West,281,2.0,5.0,78,0.00,,,0.60,970,Wunderground v.1.15,2013-05-04 20:50:00,
2013-05-04 15:00:00,47.0,40.5,30.09,WSW,248,2.0,2.0,78,0.00,,,0.60,295,Wunderground v.1.15,2013-05-04 21:00:00,
2013-05-04 15:05:00,47.4,38.8,30.09,WSW,248,1.0,2.0,72,0.00,,,0.60,355,Wunderground v.1.15,2013-05-04 21:05:00,
2013-05-04 15:10:00,47.9,40.0,30.09,NW,326,1.0,5.0,74,0.00,,,0.60,988,Wunderground v.1.15,2013-05-04 21:10:00,
2013-05-04 15:15:00,48.6,39.3,30.09,NW,310,2.0,5.0,70,0.00,,,0.60,967,Wunderground v.1.15,2013-05-04 21:15:00,
2013-05-04 15:25:00,50.4,40.2,30.09,North,351,1.0,2.0,68,0.00,,,0.60,429,Wunderground v.1.15,2013-05-04 21:25:00,
2013-05-04 15:35:00,49.7,40.7,30.09,ENE,73,1.0,2.0,71,0.00,,,0.60,276,Wunderground v.1.15,2013-05-04 21:35:00,
2013-05-04 15:40:00,48.7,39.4,30.09,South,175,2.0,2.0,70,0.00,,,0.60,218,Wunderground v.1.15,2013-05-04 21:40:00,
2013-05-04 15:50:00,47.0,40.2,30.09,East,79,3.0,3.0,77,0.00,,,0.60,230,Wunderground v.1.15,2013-05-04 21:50:00,
2013-05-04 15:55:00,46.5,39.7,30.09,East,96,2.0,3.0,77,0.00,,,0.60,248,Wunderground v.1.15,2013-05-04 21:55:00,
2013-05-04 16:05:00,46.5,39.7,30.09,East,96,1.0,1.0,77,0.00,,,0.60,552,Wunderground v.1.15,2013-05-04 22:05:00,
2013-05-04 16:10:00,46.8,40.0,30.09,ENE,73,1.0,2.0,77,0.00,,,0.60,381,Wunderground v.1.15,2013-05-04 22:10:00,
2013-05-04 16:15:00,47.4,40.2,30.09,ENE,67,1.0,2.0,76,0.00,,,0.60,568,Wunderground v.1.15,2013-05-04 22:15:00,
2013-05-04 16:20:00,47.9,40.4,30.09,ENE,62,1.0,3.0,75,0.00,,,0.60,555,Wunderground v.1.15,2013-05-04 22:20:00,
2013-05-04 16:25:00,48.2,39.6,30.09,ENE,60,2.0,3.0,72,0.00,,,0.60,707,Wunderground v.1.15,2013-05-04 22:25:00,
2013-05-04 16:30:00,48.8,40.9,30.09,ENE,72,2.0,2.0,74,0.00,,,0.60,557,Wunderground v.1.15,2013-05-04 22:30:00,
2013-05-04 16:35:00,49.5,40.5,30.09,NE,54,1.0,2.0,71,0.00,,,0.60,311,Wunderground v.1.15,2013-05-04 22:35:00,
2013-05-04 16:40:00,49.8,40.0,30.08,NE,49,1.0,1.0,69,0.00,,,0.60,343,Wunderground v.1.15,2013-05-04 22:40:00,
2013-05-04 16:50:00,49.4,38.5,30.08,NE,45,1.0,1.0,66,0.00,,,0.60,294,Wunderground v.1.15,2013-05-04 22:50:00,
2013-05-04 16:55:00,49.5,40.1,30.08,NE,45,1.0,1.0,70,0.00,,,0.60,345,Wunderground v.1.15,2013-05-04 22:55:00,
2013-05-04 17:05:00,50.6,40.4,30.08,North,8,1.0,1.0,68,0.00,,,0.60,615,Wunderground v.1.15,2013-05-04 23:05:00,
2013-05-04 17:10:00,51.2,40.2,30.08,North,9,1.0,1.0,66,0.00,,,0.60,248,Wunderground v.1.15,2013-05-04 23:10:00,
2013-05-04 17:20:00,49.9,42.6,30.09,NNE,15,2.0,2.0,76,0.00,,,0.60,91,Wunderground v.1.15,2013-05-04 23:20:00,
2013-05-04 17:25:00,47.5,38.9,30.09,East,80,2.0,3.0,72,0.00,,,0.61,65,Wunderground v.1.15,2013-05-04 23:25:00,
2013-05-04 17:30:00,45.7,37.5,30.09,SSE,153,3.0,3.0,73,0.00,,,0.61,63,Wunderground v.1.15,2013-05-04 23:30:00,
2013-05-04 17:35:00,45.1,37.3,30.08,SSW,202,3.0,3.0,74,0.00,,,0.61,88,Wunderground v.1.15,2013-05-04 23:35:00,
2013-05-04 17:40:00,45.0,37.6,30.09,WSW,246,3.0,5.0,75,0.00,,,0.61,86,Wunderground v.1.15,2013-05-04 23:40:00,
2013-05-04 17:50:00,44.8,38.4,30.09,West,268,3.0,3.0,78,0.00,,,0.61,134,Wunderground v.1.15,2013-05-04 23:50:00,
2013-05-04 17:55:00,44.9,38.1,30.09,West,268,2.0,3.0,77,0.00,,,0.61,121,Wunderground v.1.15,2013-05-04 23:55:00,
2013-05-04 18:00:00,45.0,38.2,30.09,West,268,0.0,0.0,77,0.00,,,0.61,141,Wunderground v.1.15,2013-05-05 00:00:00,
2013-05-04 18:10:00,45.6,38.8,30.10,North,5,0.0,2.0,77,0.00,,,0.61,40,Wunderground v.1.15,2013-05-05 00:10:00,
2013-05-04 18:15:00,45.4,38.6,30.10,WNW,301,1.0,3.0,77,0.00,,,0.61,39,Wunderground v.1.15,2013-05-05 00:15:00,
2013-05-04 18:20:00,44.7,38.6,30.10,SW,224,3.0,4.0,79,0.00,,,0.61,28,Wunderground v.1.15,2013-05-05 00:20:00,
2013-05-04 18:25:00,44.0,37.9,30.11,NW,320,3.0,4.0,79,0.00,,,0.62,28,Wunderground v.1.15,2013-05-05 00:25:00,
2013-05-04 18:30:00,43.7,37.9,30.11,West,260,1.0,1.0,80,0.00,,,0.62,26,Wunderground v.1.15,2013-05-05 00:30:00,
2013-05-04 18:40:00,43.4,38.3,30.11,West,264,0.0,1.0,82,0.05,,,0.63,54,Wunderground v.1.15,2013-05-05 00:40:00,
2013-05-04 18:45:00,43.3,38.5,30.11,West,272,0.0,1.0,83,0.05,,,0.63,67,Wunderground v.1.15,2013-05-05 00:45:00,
2013-05-04 18:55:00,43.4,38.9,30.11,West,272,0.0,0.0,84,0.00,,,0.63,54,Wunderground v.1.15,2013-05-05 00:55:00,
2013-05-04 19:05:00,43.5,39.0,30.11,West,272,0.0,0.0,84,0.00,,,0.63,21,Wunderground v.1.15,2013-05-05 01:05:00,
2013-05-04 19:10:00,43.4,38.9,30.11,West,272,0.0,0.0,84,0.00,,,0.63,19,Wunderground v.1.15,2013-05-05 01:10:00,
2013-05-04 19:15:00,43.3,38.8,30.11,West,272,0.0,0.0,84,0.00,,,0.63,9,Wunderground v.1.15,2013-05-05 01:15:00,
2013-05-04 19:20:00,43.3,38.5,30.11,West,272,0.0,0.0,83,0.00,,,0.63,11,Wunderground v.1.15,2013-05-05 01:20:00,
2013-05-04 19:25:00,43.1,38.3,30.11,West,272,0.0,0.0,83,0.00,,,0.63,14,Wunderground v.1.15,2013-05-05 01:25:00,
2013-05-04 19:30:00,43.1,38.3,30.11,West,272,0.0,0.0,83,0.00,,,0.63,12,Wunderground v.1.15,2013-05-05 01:30:00,
2013-05-04 19:40:00,43.1,38.6,30.11,West,272,0.0,0.0,84,0.00,,,0.63,9,Wunderground v.1.15,2013-05-05 01:40:00,
2013-05-04 19:45:00,43.1,38.6,30.12,West,272,0.0,0.0,84,0.00,,,0.63,9,Wunderground v.1.15,2013-05-05 01:45:00,
2013-05-04 19:55:00,42.9,38.4,30.12,West,272,0.0,0.0,84,0.00,,,0.63,7,Wunderground v.1.15,2013-05-05 01:55:00,
2013-05-04 20:00:00,42.8,38.3,30.12,West,272,0.0,0.0,84,0.00,,,0.63,5,Wunderground v.1.15,2013-05-05 02:00:00,
2013-05-04 20:10:00,42.6,38.1,30.12,West,272,1.0,5.0,84,0.00,,,0.63,0,Wunderground v.1.15,2013-05-05 02:10:00,
2013-05-04 20:15:00,42.5,38.0,30.12,WNW,297,3.0,5.0,84,0.00,,,0.63,0,Wunderground v.1.15,2013-05-05 02:15:00,
2013-05-04 20:25:00,42.4,37.9,30.12,WNW,303,3.0,3.0,84,0.00,,,0.63,0,Wunderground v.1.15,2013-05-05 02:25:00,
2013-05-04 20:30:00,42.3,37.8,30.12,NW,322,2.0,2.0,84,0.00,,,0.63,0,Wunderground v.1.15,2013-05-05 02:30:00,
2013-05-04 20:35:00,42.2,37.7,30.12,NW,322,1.0,2.0,84,0.00,,,0.63,0,Wunderground v.1.15,2013-05-05 02:35:00,
2013-05-04 20:40:00,42.3,37.8,30.12,NW,321,1.0,2.0,84,0.00,,,0.63,0,Wunderground v.1.15,2013-05-05 02:40:00,
2013-05-04 20:45:00,42.3,37.8,30.12,NW,321,1.0,2.0,84,0.00,,,0.63,0,Wunderground v.1.15,2013-05-05 02:45:00,
2013-05-04 20:55:00,42.2,37.7,30.13,NW,321,1.0,1.0,84,0.00,,,0.64,0,Wunderground v.1.15,2013-05-05 02:55:00,
2013-05-04 21:00:00,42.2,38.0,30.13,NW,321,0.0,0.0,85,0.00,,,0.64,0,Wunderground v.1.15,2013-05-05 03:00:00,
2013-05-04 21:10:00,42.0,37.8,30.13,NW,321,1.0,1.0,85,0.00,,,0.64,0,Wunderground v.1.15,2013-05-05 03:10:00,
2013-05-04 21:15:00,41.9,38.0,30.12,NW,319,2.0,4.0,86,0.00,,,0.64,0,Wunderground v.1.15,2013-05-05 03:15:00,
2013-05-04 21:20:00,41.8,37.6,30.13,NW,319,2.0,2.0,85,0.00,,,0.64,0,Wunderground v.1.15,2013-05-05 03:20:00,
2013-05-04 21:25:00,41.8,37.6,30.13,NW,319,1.0,3.0,85,0.00,,,0.64,0,Wunderground v.1.15,2013-05-05 03:25:00,
2013-05-04 21:35:00,41.6,37.1,30.13,NW,318,1.0,1.0,84,0.00,,,0.64,0,Wunderground v.1.15,2013-05-05 03:35:00,
2013-05-04 21:40:00,41.6,37.1,30.13,NW,318,0.0,0.0,84,0.00,,,0.64,0,Wunderground v.1.15,2013-05-05 03:40:00,
2013-05-04 21:45:00,41.5,37.0,30.13,NW,318,0.0,2.0,84,0.00,,,0.64,0,Wunderground v.1.15,2013-05-05 03:45:00,
2013-05-04 21:55:00,41.3,37.1,30.13,NW,317,1.0,1.0,85,0.00,,,0.65,0,Wunderground v.1.15,2013-05-05 03:55:00,
2013-05-04 22:00:00,41.3,36.8,30.13,NW,318,1.0,1.0,84,0.00,,,0.65,0,Wunderground v.1.15,2013-05-05 04:00:00,
2013-05-04 22:05:00,41.4,36.9,30.13,NW,318,1.0,1.0,84,0.00,,,0.65,0,Wunderground v.1.15,2013-05-05 04:05:00,
2013-05-04 22:10:00,41.4,36.9,30.13,NW,318,0.0,0.0,84,0.00,,,0.65,0,Wunderground v.1.15,2013-05-05 04:10:00,
2013-05-04 22:15:00,41.4,37.2,30.13,NW,318,0.0,0.0,85,0.00,,,0.65,0,Wunderground v.1.15,2013-05-05 04:15:00,
2013-05-04 22:20:00,41.4,36.9,30.13,NW,318,0.0,0.0,84,0.00,,,0.65,0,Wunderground v.1.15,2013-05-05 04:20:00,
2013-05-04 22:25:00,41.4,36.9,30.13,NW,318,0.0,0.0,84,0.00,,,0.65,0,Wunderground v.1.15,2013-05-05 04:25:00,
2013-05-04 22:30:00,41.4,36.9,30.13,NW,318,0.0,1.0,84,0.00,,,0.65,0,Wunderground v.1.15,2013-05-05 04:30:00,
2013-05-04 22:35:00,41.3,36.8,30.12,NW,318,1.0,1.0,84,0.00,,,0.65,0,Wunderground v.1.15,2013-05-05 04:35:00,
2013-05-04 22:40:00,41.4,36.9,30.12,NW,318,0.0,0.0,84,0.00,,,0.65,0,Wunderground v.1.15,2013-05-05 04:40:00,
2013-05-04 22:45:00,41.3,37.1,30.12,NW,318,0.0,0.0,85,0.00,,,0.65,0,Wunderground v.1.15,2013-05-05 04:45:00,
2013-05-04 22:50:00,41.2,36.7,30.12,NW,318,0.0,0.0,84,0.00,,,0.65,0,Wunderground v.1.15,2013-05-05 04:50:00,
2013-05-04 22:55:00,41.2,37.0,30.12,NW,318,0.0,1.0,85,0.00,,,0.65,0,Wunderground v.1.15,2013-05-05 04:55:00,
2013-05-04 23:00:00,41.2,37.0,30.12,NW,318,1.0,1.0,85,0.00,,,0.65,0,Wunderground v.1.15,2013-05-05 05:00:00,
2013-05-04 23:05:00,41.2,37.0,30.12,NW,318,0.0,1.0,85,0.00,,,0.65,0,Wunderground v.1.15,2013-05-05 05:05:00,
2013-05-04 23:15:00,41.1,36.9,30.12,NW,318,0.0,2.0,85,0.00,,,0.65,0,Wunderground v.1.15,2013-05-05 05:15:00,
2013-05-04 23:20:00,41.2,37.0,30.12,NW,318,0.0,0.0,85,0.00,,,0.65,0,Wunderground v.1.15,2013-05-05 05:20:00,
2013-05-04 23:25:00,41.2,37.0,30.12,NW,318,0.0,0.0,85,0.00,,,0.65,0,Wunderground v.1.15,2013-05-05 05:25:00,
2013-05-04 23:30:00,41.3,37.1,30.12,NW,318,0.0,0.0,85,0.00,,,0.66,0,Wunderground v.1.15,2013-05-05 05:30:00,
2013-05-04 23:35:00,41.3,37.1,30.12,NW,318,0.0,0.0,85,0.00,,,0.66,0,Wunderground v.1.15,2013-05-05 05:35:00,
2013-05-04 23:40:00,41.1,37.2,30.12,NW,318,0.0,0.0,86,0.00,,,0.66,0,Wunderground v.1.15,2013-05-05 05:40:00,
2013-05-04 23:50:00,40.9,37.3,30.11,NW,318,2.0,4.0,87,0.00,,,0.66,0,Wunderground v.1.15,2013-05-05 05:50:00,
2013-05-04 23:55:00,40.8,37.2,30.11,NW,317,2.0,4.0,87,0.00,,,0.66,0,Wunderground v.1.15,2013-05-05 05:55:00,